Location: Krasnoyarskiy Pitomnik
(51.1333°N, 71.6167°E)
Time: 18:08:06
(UTC+00:00)

Vanguard 1 - All Passes

Search period start: 19 April 2024 00:00
Search period end: 29 April 2024 00:00
Orbit: 653 x 3825 km, 34.2° (Epoch: 17 April)

Date Brightness Start Highest point End Pass type
(mag) Time Alt. Az. Time Alt. Az. Time Alt. Az.
19 Apr - 00:22:57 10° SW 00:39:10 34° S 00:49:31 10° ESE daylight
19 Apr - 02:47:16 10° WSW 03:00:20 33° SSW 03:08:16 10° SE daylight
19 Apr - 05:13:27 10° WSW 05:19:30 16° SW 05:24:02 10° S daylight
19 Apr - 22:21:16 10° SSW 22:37:05 26° SSE 22:48:47 10° ESE visible
20 Apr - 00:42:39 10° SW 00:59:17 37° S 01:09:39 10° ESE daylight
20 Apr - 03:07:38 10° WSW 03:20:13 32° SSW 03:27:57 10° SE daylight
20 Apr - 05:35:06 10° WSW 05:38:58 13° SW 05:42:11 10° SSW daylight
20 Apr - 20:25:39 10° SSE 20:35:03 14° SE 20:43:26 10° ESE visible
20 Apr - 22:39:55 10° SSW 22:57:09 31° SSE 23:09:26 10° ESE visible
21 Apr - 01:02:34 10° WSW 01:19:21 39° S 01:29:40 10° ESE daylight
21 Apr - 03:28:08 10° WSW 03:40:00 29° SSW 03:47:28 10° SSE daylight
21 Apr - 20:41:32 10° S 20:54:51 19° SE 21:06:10 10° ESE visible
21 Apr - 22:59:00 10° SW 23:17:14 35° SSE 23:29:51 10° ESE visible
22 Apr - 01:22:41 10° WSW 01:39:23 39° S 01:49:34 10° ESE daylight
22 Apr - 03:48:47 10° WSW 03:59:40 26° SSW 04:06:47 10° SSE daylight
22 Apr - 20:58:53 10° S 21:14:42 24° SE 21:27:43 10° E visible
22 Apr - 23:18:26 10° SW 23:37:19 38° SSE 23:50:06 10° ESE visible
23 Apr - 01:42:56 10° WSW 01:59:22 39° SSW 02:09:23 10° SE daylight
23 Apr - 04:09:39 10° W 04:19:14 22° SW 04:25:50 10° S daylight
23 Apr - 19:09:08 10° SE 19:12:55 11° SE 19:16:37 10° ESE visible
23 Apr - 21:17:02 10° SSW 21:34:37 29° SSE 21:48:41 10° E visible
23 Apr - 23:38:08 10° SW 23:57:26 41° S 00:10:14 10° ESE daylight
24 Apr - 02:03:19 10° WSW 02:19:17 37° SSW 02:29:04 10° SE daylight
24 Apr - 04:30:52 10° WSW 04:38:40 17° SW 04:44:26 10° S daylight
24 Apr - 19:21:32 10° SSE 19:32:28 16° SE 19:42:42 10° ESE visible
24 Apr - 21:35:44 10° SSW 21:54:36 34° SSE 22:09:18 10° E visible
24 Apr - 23:58:03 10° WSW 00:17:32 43° S 00:30:15 10° ESE daylight
25 Apr - 02:23:48 10° W 02:39:05 34° SSW 02:48:37 10° SE daylight
25 Apr - 04:52:51 10° WSW 04:57:59 13° SW 05:02:11 10° SSW daylight
25 Apr - 19:37:47 10° S 19:52:05 21° SE 20:05:13 10° E visible
25 Apr - 21:54:50 10° SW 22:14:37 38° SSE 22:29:43 10° E visible
26 Apr - 00:18:08 10° WSW 00:37:36 43° S 00:50:10 10° ESE daylight
26 Apr - 02:44:26 10° W 02:58:47 31° SSW 03:07:58 10° SSE daylight
26 Apr - 19:55:17 10° S 20:11:46 26° SE 20:26:42 10° E visible
26 Apr - 22:14:15 10° SW 22:34:41 41° SSE 22:49:58 10° ESE visible
27 Apr - 00:38:22 10° WSW 00:57:37 43° S 01:09:59 10° SE daylight
27 Apr - 03:05:13 10° W 03:18:21 26° SW 03:27:04 10° SSE daylight
27 Apr - 18:05:33 10° SE 18:10:13 11° SE 18:14:55 10° ESE visible
27 Apr - 20:13:31 10° SSW 20:31:33 31° SSE 20:47:40 10° E visible
27 Apr - 22:33:55 10° SW 22:54:46 44° S 23:10:08 10° ESE visible
28 Apr - 00:58:43 10° WSW 01:17:33 41° SSW 01:29:42 10° SE daylight
28 Apr - 03:26:18 10° W 03:37:47 22° SW 03:45:50 10° S daylight
28 Apr - 18:18:36 10° SSE 18:29:34 16° SE 18:40:34 10° E visible
28 Apr - 20:32:15 10° SSW 20:51:25 35° SSE 21:08:19 10° E visible
28 Apr - 22:53:48 10° WSW 23:14:52 46° S 23:30:10 10° ESE visible
